Weather History for Morris, MN

Change the Weather History Date:

Monday, June 17, 2013

  Actual Average Record
Temperature  
Mean Temperature 68 °F -  
Max Temperature 80 °F 73 °F 89 °F (2007)
Min Temperature 55 °F 53 °F 41 °F (2000)
Cooling Degree Days 2    
Growing Degree Days 18 (Base 50)    
Moisture  
Dew Point 54 °F    
Average Humidity 59    
Maximum Humidity 88    
Minimum Humidity 34    
Precipitation  
Precipitation 0.00 in - - ()
Sea Level Pressure  
Sea Level Pressure 29.95 in    
Wind  
Wind Speed 8 mph (NW)    
Max Wind Speed 18 mph    
Max Gust Speed 23 mph    
Visibility 10 miles    
Events Rain    
Averages and records for this station are not official NWS values.
T = Trace of Precipitation, MM = Missing Value Source: NWS Daily Summary

Daily Weather History Graph

Daily Weather History Graph

Search for Another Location

Airport:

Trip Planner

Search our weather history database for the weather conditions in past years. The results will help you decide how hot, cold, wet, or windy it might be!

Date:

Astronomy

Jun. 17, 2013 Rise Set
Actual Time 5:34 AM CDT 9:15 PM CDT
Civil Twilight 4:56 AM CDT 9:53 PM CDT
Nautical Twilight 4:05 AM CDT 10:44 PM CDT
Astronomical Twilight 2:55 AM CDT 11:54 PM CDT
Moon 2:40 PM CDT (6/17) 1:27 AM CDT (6/17)
Length of Visible Light 16h 57m
Length of Day
15h 41m
First Quarter, 60% of the Moon is Illuminated
Jun 17
First Quarter
Jun 23
Full
Jun 29
Last Quarter
Jul 8
New
Jul 15
First Quarter

Hourly Weather History & Observations

Time (CDT) Temp. Dew Point Humidity Pressure Visibility Wind Dir Wind Speed Gust Speed Precip Events Conditions
12:11 AM 64.4 °F 51.8 °F 64% 29.90 in 10.0 mi NNW 6.9 mph - N/A   Clear
12:31 AM 62.6 °F 51.8 °F 68% 29.91 in 10.0 mi WNW 3.5 mph - N/A   Clear
12:51 AM 62.6 °F 53.6 °F 72% 29.91 in 10.0 mi West 4.6 mph - N/A   Clear
1:11 AM 60.8 °F 53.6 °F 77% 29.92 in 10.0 mi West 4.6 mph - N/A   Clear
1:31 AM 60.8 °F 51.8 °F 72% 29.92 in 10.0 mi West 3.5 mph - N/A   Clear
1:51 AM 60.8 °F 53.6 °F 77% 29.92 in 10.0 mi West 4.6 mph - N/A   Clear
2:11 AM 60.8 °F 53.6 °F 77% 29.92 in 10.0 mi West 3.5 mph - N/A   Clear
2:31 AM 59.0 °F 51.8 °F 77% 29.92 in 10.0 mi West 3.5 mph - N/A   Clear
2:51 AM 57.2 °F 51.8 °F 82% 29.93 in 10.0 mi West 5.8 mph - N/A   Clear
3:11 AM 57.2 °F 51.8 °F 82% 29.93 in 10.0 mi West 4.6 mph - N/A   Clear
3:29 AM 59.0 °F 51.8 °F 77% 29.93 in 10.0 mi West 4.6 mph - N/A   Scattered Clouds
3:51 AM 57.2 °F 51.8 °F 82% 29.92 in 10.0 mi West 5.8 mph - N/A   Scattered Clouds
4:11 AM 57.2 °F 51.8 °F 82% 29.92 in 10.0 mi West 5.8 mph - N/A   Clear
4:31 AM 55.4 °F 51.8 °F 88% 29.92 in 10.0 mi West 5.8 mph - N/A   Clear
4:51 AM 57.2 °F 51.8 °F 82% 29.93 in 10.0 mi West 4.6 mph - N/A   Clear
5:11 AM 57.2 °F 51.8 °F 82% 29.93 in 10.0 mi West 5.8 mph - N/A   Clear
5:31 AM 55.4 °F 51.8 °F 88% 29.93 in 10.0 mi West 5.8 mph - N/A   Clear
5:51 AM 55.4 °F 51.8 °F 88% 29.93 in 10.0 mi West 4.6 mph - N/A   Clear
6:11 AM 57.2 °F 51.8 °F 82% 29.93 in 10.0 mi WNW 8.1 mph - N/A   Clear
6:31 AM 60.8 °F 53.6 °F 77% 29.94 in 10.0 mi WNW 8.1 mph - N/A   Clear
6:51 AM 60.8 °F 53.6 °F 77% 29.94 in 10.0 mi WNW 9.2 mph - N/A   Clear
7:11 AM 62.6 °F 55.4 °F 77% 29.94 in 10.0 mi WNW 8.1 mph - N/A   Clear
7:31 AM 64.4 °F 55.4 °F 73% 29.95 in 10.0 mi WNW 9.2 mph - N/A   Clear
7:51 AM 66.2 °F 55.4 °F 68% 29.95 in 10.0 mi WNW 11.5 mph - N/A   Clear
8:11 AM 66.2 °F 55.4 °F 68% 29.95 in 10.0 mi WNW 9.2 mph - N/A   Clear
8:31 AM 69.8 °F 55.4 °F 60% 29.96 in 10.0 mi WNW 8.1 mph - N/A   Clear
8:51 AM 69.8 °F 55.4 °F 60% 29.96 in 10.0 mi WNW 10.4 mph - N/A   Clear
9:11 AM 71.6 °F 55.4 °F 57% 29.96 in 10.0 mi WNW 12.7 mph - N/A   Clear
9:31 AM 71.6 °F 55.4 °F 57% 29.96 in 10.0 mi WNW 12.7 mph - N/A   Clear
9:51 AM 71.6 °F 55.4 °F 57% 29.96 in 10.0 mi WNW 15.0 mph - N/A   Clear
10:11 AM 73.4 °F 55.4 °F 53% 29.95 in 10.0 mi WNW 15.0 mph - N/A   Clear
10:31 AM 73.4 °F 55.4 °F 53% 29.96 in 10.0 mi WNW 13.8 mph 19.6 mph N/A   Clear
10:51 AM 73.4 °F 55.4 °F 53% 29.95 in 10.0 mi NW 17.3 mph - N/A   Scattered Clouds
11:11 AM 73.4 °F 55.4 °F 53% 29.96 in 10.0 mi WNW 15.0 mph 19.6 mph N/A   Scattered Clouds
11:31 AM 73.4 °F 55.4 °F 53% 29.96 in 10.0 mi NW 18.4 mph 21.9 mph N/A   Mostly Cloudy
11:51 AM 75.2 °F 55.4 °F 50% 29.96 in 10.0 mi NNW 17.3 mph - N/A   Scattered Clouds
12:11 PM 75.2 °F 55.4 °F 50% 29.97 in 10.0 mi NW 17.3 mph - N/A   Scattered Clouds
12:31 PM 75.2 °F 55.4 °F 50% 29.97 in 10.0 mi NW 13.8 mph - N/A   Scattered Clouds
12:51 PM 75.2 °F 53.6 °F 47% 29.97 in 10.0 mi NW 13.8 mph 23.0 mph N/A   Scattered Clouds
1:11 PM 75.2 °F 53.6 °F 47% 29.97 in 10.0 mi NNW 16.1 mph 19.6 mph N/A   Mostly Cloudy
1:31 PM 77.0 °F 53.6 °F 44% 29.97 in 10.0 mi NNW 11.5 mph 21.9 mph N/A   Scattered Clouds
1:51 PM 78.8 °F 53.6 °F 42% 29.97 in 10.0 mi NW 12.7 mph - N/A   Scattered Clouds
2:11 PM 78.8 °F 53.6 °F 42% 29.97 in 10.0 mi NW 15.0 mph 19.6 mph N/A   Scattered Clouds
2:31 PM 78.8 °F 53.6 °F 42% 29.97 in 10.0 mi NNW 13.8 mph 18.4 mph N/A   Scattered Clouds
2:51 PM 78.8 °F 51.8 °F 39% 29.96 in 10.0 mi NW 11.5 mph - N/A   Scattered Clouds
3:11 PM 80.6 °F 51.8 °F 37% 29.96 in 10.0 mi NW 13.8 mph 21.9 mph N/A   Scattered Clouds
3:31 PM 78.8 °F 51.8 °F 39% 29.96 in 10.0 mi NW 15.0 mph - N/A   Scattered Clouds
3:51 PM 80.6 °F 51.8 °F 37% 29.96 in 10.0 mi NW 15.0 mph - N/A   Clear
4:11 PM 80.6 °F 51.8 °F 37% 29.96 in 10.0 mi NNW 15.0 mph 20.7 mph N/A   Scattered Clouds
4:31 PM 80.6 °F 51.8 °F 37% 29.96 in 10.0 mi North 13.8 mph - N/A   Scattered Clouds
4:51 PM 80.6 °F 51.8 °F 37% 29.96 in 10.0 mi NNW 17.3 mph - N/A   Mostly Cloudy
5:11 PM 80.6 °F 50.0 °F 34% 29.96 in 10.0 mi NW 11.5 mph 18.4 mph N/A   Scattered Clouds
5:31 PM 78.8 °F 51.8 °F 39% 29.96 in 10.0 mi NNW 12.7 mph - N/A   Scattered Clouds
5:51 PM 80.6 °F 51.8 °F 37% 29.95 in 10.0 mi NNW 12.7 mph - N/A   Scattered Clouds
6:11 PM 78.8 °F 51.8 °F 39% 29.95 in 10.0 mi NNW 10.4 mph 18.4 mph N/A   Scattered Clouds
6:31 PM 78.8 °F 51.8 °F 39% 29.95 in 10.0 mi NNW 10.4 mph - N/A   Scattered Clouds
6:51 PM 78.8 °F 51.8 °F 39% 29.95 in 10.0 mi NNW 9.2 mph - N/A   Clear
7:11 PM 78.8 °F 51.8 °F 39% 29.95 in 10.0 mi North 13.8 mph 19.6 mph N/A   Scattered Clouds
7:31 PM 75.2 °F 51.8 °F 44% 29.96 in 10.0 mi North 9.2 mph - N/A   Scattered Clouds
7:51 PM 77.0 °F 51.8 °F 41% 29.96 in 10.0 mi NNW 8.1 mph - N/A   Scattered Clouds
8:11 PM 75.2 °F 51.8 °F 44% 29.96 in 10.0 mi NNW 11.5 mph - N/A   Scattered Clouds
8:31 PM 73.4 °F 51.8 °F 47% 29.96 in 10.0 mi NNE 6.9 mph - N/A   Scattered Clouds
8:51 PM 73.4 °F 53.6 °F 50% 29.96 in 10.0 mi NNE 8.1 mph - N/A   Mostly Cloudy
9:11 PM 73.4 °F 53.6 °F 50% 29.97 in 10.0 mi NNE 5.8 mph - N/A   Overcast
9:31 PM 71.6 °F 53.6 °F 53% 29.97 in 10.0 mi NNE 5.8 mph - N/A   Overcast
9:51 PM 71.6 °F 53.6 °F 53% 29.98 in 10.0 mi NNE 9.2 mph - N/A   Mostly Cloudy
10:11 PM 71.6 °F 55.4 °F 57% 29.99 in 10.0 mi East 11.5 mph 18.4 mph N/A   Mostly Cloudy
10:31 PM 69.8 °F 55.4 °F 60% 30.00 in 10.0 mi East 9.2 mph - N/A   Overcast
10:51 PM 66.2 °F 59.0 °F 78% 30.01 in 10.0 mi East 11.5 mph - N/A Rain Light Rain
11:11 PM 66.2 °F 59.0 °F 78% 30.01 in 10.0 mi ENE 5.8 mph - N/A   Mostly Cloudy
11:31 PM 64.4 °F 59.0 °F 83% 30.01 in 10.0 mi East 9.2 mph - N/A   Scattered Clouds
11:51 PM 66.2 °F 59.0 °F 78% 30.02 in 10.0 mi East 8.1 mph - N/A   Mostly Cloudy